This is the latest recevied weather packets stored in our database for station/object EA1HTW-13. If no packets are shown the sender has not sent any weather packets the latest 10 day(s).
| Time | Temp. | Humidity | Pressure | Rain* | Wind** | Luminosity | Snow |
|---|---|---|---|---|---|---|---|
| 1777329142 | 21.11° C | 63% | 1004.8 hPa | 0 mm | - | - | - |
| 1777328602 | 21.11° C | 62% | 1005 hPa | 0 mm | - | - | - |
| 1777328062 | 21.67° C | 62% | 1005 hPa | 0 mm | - | - | - |
| 1777327523 | 21.67° C | 62% | 1005 hPa | 0 mm | - | - | - |
| 1777326982 | 21.67° C | 61% | 1004.9 hPa | 0 mm | - | - | - |
| 1777326443 | 21.67° C | 60% | 1005.1 hPa | 0 mm | - | - | - |
| 1777325902 | 21.67° C | 60% | 1005.1 hPa | 0 mm | - | - | - |
| 1777325362 | 22.22° C | 60% | 1005.2 hPa | 0 mm | - | - | - |
| 1777324822 | 22.22° C | 61% | 1005.1 hPa | 0 mm | - | - | - |
| 1777324283 | 22.22° C | 62% | 1005.2 hPa | 0 mm | - | - | - |
| 1777323743 | 22.22° C | 62% | 1005.1 hPa | 0 mm | - | - | - |
| 1777323202 | 22.78° C | 60% | 1005.1 hPa | 0 mm | - | - | - |
| 1777322662 | 22.78° C | 57% | 1005 hPa | 0 mm | - | - | - |
| 1777322122 | 22.78° C | 57% | 1005.1 hPa | 0 mm | - | - | - |
| 1777321583 | 22.78° C | 58% | 1005 hPa | 0 mm | - | - | - |
| 1777321047 | 22.78° C | 60% | 1004.9 hPa | 0 mm | - | - | - |
| 1777320503 | 23.33° C | 59% | 1004.8 hPa | 0 mm | - | - | - |
| 1777319963 | 23.33° C | 58% | 1004.8 hPa | 0 mm | - | - | - |
| 1777319423 | 23.89° C | 56% | 1004.9 hPa | 0 mm | - | - | - |
| 1777318884 | 23.89° C | 55% | 1004.9 hPa | 0 mm | - | - | - |
| 1777318342 | 24.44° C | 54% | 1004.8 hPa | 0 mm | - | - | - |
| 1777317802 | 24.44° C | 53% | 1004.7 hPa | 0 mm | - | - | - |
| 1777317263 | 25° C | 53% | 1004.6 hPa | 0 mm | - | - | - |
| 1777316724 | 25° C | 53% | 1004.8 hPa | 0 mm | - | - | - |
| 1777316182 | 25° C | 52% | 1004.8 hPa | 0 mm | - | - | - |
* Rain latest hour (hover to see other rain measurements)
** Current wind speed in m/s (hover to see current wind gust speed)